Total_Precipitation_Accumulation
0.46 0.36 0.53 0.55 0.51 0.62 0.93 0.92 0.85 0.40 0.22 0.18 0.21 0.28 0.27 0.24 0.21 0.22 0.23 0.25 0.26 0.27 0.27 0.26 0.25 0.24 0.21 0.21 0.23 0.27 0.31 0.33 0.36 0.42 0.45 0.47 0.46 0.49 0.51 0.53 0.58 0.60 0.62 0.63
0.52 0.31 0.43 0.50 0.46 0.48 0.53 0.56 0.56 0.40 0.33 0.23 0.23 0.24 0.24 0.21 0.19 0.19 0.20 0.23 0.24 0.22 0.24 0.23 0.26 0.28 0.26 0.24 0.23 0.25 0.28 0.29 0.32 0.36 0.40 0.45 0.48 0.48 0.50 0.53 0.58 0.62 0.67 0.73
0.65 0.35 0.49 0.55 0.45 0.46 0.46 0.43 0.46 0.49 0.39 0.28 0.27 0.26 0.25 0.22 0.18 0.17 0.15 0.15 0.18 0.19 0.21 0.21 0.21 0.23 0.24 0.24 0.22 0.23 0.26 0.27 0.30 0.34 0.39 0.42 0.48 0.53 0.59 0.63 0.70 0.76 0.79 0.88
0.77 0.51 0.64 0.42 0.32 0.34 0.39 0.40 0.42 0.40 0.31 0.25 0.25 0.25 0.24 0.21 0.17 0.14 0.11 0.09 0.10 0.13 0.14 0.14 0.15 0.16 0.21 0.21 0.21 0.22 0.26 0.31 0.34 0.36 0.45 0.52 0.54 0.60 0.69 0.75 0.82 0.88 0.87 0.89
0.89 0.64 0.38 0.23 0.22 0.25 0.35 0.41 0.37 0.28 0.21 0.18 0.19 0.23 0.23 0.19 0.14 0.12 0.10 0.10 0.09 0.10 0.13 0.13 0.14 0.16 0.20 0.23 0.24 0.24 0.27 0.33 0.38 0.40 0.50 0.60 0.61 0.65 0.72 0.78 0.84 0.86 0.84 0.80
0.93 0.75 0.35 0.20 0.11 0.12 0.25 0.44 0.30 0.24 0.22 0.22 0.24 0.29 0.24 0.17 0.14 0.14 0.13 0.11 0.12 0.12 0.13 0.16 0.19 0.21 0.25 0.28 0.35 0.37 0.37 0.41 0.48 0.55 0.63 0.68 0.68 0.68 0.67 0.68 0.70 0.68 0.64 0.60
0.79 0.72 0.29 0.16 0.09 0.12 0.36 0.44 0.20 0.18 0.20 0.23 0.25 0.24 0.20 0.14 0.12 0.14 0.16 0.16 0.15 0.16 0.19 0.22 0.22 0.24 0.28 0.32 0.42 0.48 0.50 0.52 0.55 0.60 0.63 0.63 0.63 0.60 0.57 0.54 0.54 0.52 0.50 0.48
0.51 0.70 0.41 0.17 0.13 0.23 0.32 0.20 0.17 0.18 0.20 0.21 0.21 0.17 0.15 0.17 0.14 0.12 0.12 0.14 0.17 0.20 0.23 0.25 0.29 0.34 0.36 0.39 0.44 0.48 0.50 0.51 0.50 0.50 0.51 0.53 0.53 0.53 0.50 0.48 0.48 0.47 0.47 0.49
0.38 0.39 0.26 0.18 0.18 0.19 0.16 0.15 0.14 0.16 0.17 0.17 0.17 0.17 0.14 0.13 0.12 0.11 0.12 0.13 0.16 0.21 0.26 0.29 0.31 0.34 0.37 0.37 0.37 0.39 0.40 0.42 0.41 0.38 0.37 0.38 0.40 0.42 0.43 0.43 0.43 0.46 0.48 0.50
0.32 0.27 0.19 0.17 0.14 0.12 0.10 0.10 0.09 0.09 0.11 0.15 0.17 0.16 0.15 0.13 0.12 0.10 0.10 0.11 0.13 0.16 0.18 0.21 0.22 0.25 0.27 0.27 0.27 0.27 0.28 0.31 0.32 0.30 0.28 0.30 0.31 0.34 0.36 0.38 0.38 0.39 0.43 0.48
0.29 0.22 0.17 0.15 0.11 0.09 0.09 0.08 0.06 0.05 0.06 0.09 0.11 0.11 0.12 0.13 0.11 0.10 0.10 0.10 0.11 0.11 0.12 0.14 0.15 0.16 0.18 0.18 0.19 0.22 0.22 0.22 0.24 0.26 0.26 0.28 0.30 0.34 0.38 0.40 0.45 0.45 0.42 0.43
0.29 0.20 0.20 0.18 0.12 0.10 0.10 0.08 0.07 0.06 0.06 0.06 0.07 0.08 0.07 0.08 0.07 0.08 0.10 0.10 0.11 0.11 0.12 0.16 0.15 0.14 0.13 0.13 0.14 0.19 0.21 0.21 0.23 0.25 0.25 0.26 0.28 0.32 0.38 0.41 0.46 0.48 0.48 0.47
0.16 0.13 0.13 0.12 0.08 0.07 0.07 0.07 0.06 0.06 0.07 0.08 0.08 0.08 0.08 0.08 0.09 0.11 0.13 0.14 0.14 0.13 0.12 0.14 0.15 0.15 0.14 0.14 0.15 0.17 0.21 0.23 0.23 0.25 0.27 0.27 0.28 0.31 0.33 0.35 0.40 0.43 0.46 0.48
0.09 0.10 0.11 0.09 0.07 0.06 0.06 0.06 0.06 0.06 0.06 0.08 0.09 0.09 0.09 0.09 0.11 0.13 0.15 0.16 0.16 0.15 0.14 0.13 0.13 0.16 0.16 0.15 0.17 0.19 0.21 0.25 0.27 0.26 0.27 0.27 0.28 0.29 0.31 0.34 0.33 0.33 0.37 0.44
0.05 0.07 0.10 0.09 0.07 0.07 0.07 0.08 0.08 0.07 0.07 0.07 0.08 0.09 0.10 0.11 0.13 0.14 0.14 0.15 0.16 0.15 0.14 0.14 0.14 0.15 0.16 0.17 0.17 0.18 0.20 0.23 0.25 0.26 0.28 0.30 0.30 0.30 0.32 0.34 0.34 0.34 0.35 0.41
0.06 0.06 0.06 0.06 0.07 0.07 0.07 0.09 0.10 0.09 0.09 0.09 0.10 0.12 0.13 0.14 0.13 0.12 0.12 0.13 0.14 0.14 0.12 0.12 0.13 0.14 0.14 0.16 0.17 0.16 0.18 0.24 0.26 0.25 0.25 0.27 0.30 0.32 0.32 0.34 0.35 0.36 0.37 0.40
0.12 0.11 0.11 0.11 0.10 0.09 0.08 0.08 0.10 0.12 0.12 0.13 0.14 0.15 0.15 0.14 0.13 0.12 0.12 0.12 0.13 0.14 0.15 0.15 0.15 0.14 0.13 0.14 0.15 0.15 0.16 0.19 0.25 0.25 0.25 0.27 0.28 0.30 0.31 0.33 0.35 0.35 0.35 0.41
0.13 0.13 0.13 0.14 0.13 0.12 0.11 0.10 0.10 0.11 0.12 0.13 0.13 0.14 0.15 0.16 0.16 0.14 0.14 0.14 0.13 0.13 0.13 0.13 0.13 0.12 0.12 0.13 0.16 0.17 0.17 0.18 0.19 0.21 0.24 0.28 0.31 0.31 0.32 0.33 0.33 0.34 0.36 0.41
0.12 0.11 0.10 0.11 0.12 0.13 0.12 0.11 0.11 0.11 0.12 0.12 0.13 0.15 0.16 0.16 0.16 0.15 0.14 0.15 0.16 0.16 0.15 0.13 0.15 0.13 0.12 0.14 0.17 0.16 0.18 0.19 0.20 0.22 0.25 0.31 0.34 0.31 0.33 0.33 0.33 0.34 0.37 0.39
0.08 0.09 0.11 0.12 0.13 0.13 0.13 0.12 0.12 0.13 0.13 0.13 0.14 0.14 0.15 0.17 0.17 0.16 0.16 0.16 0.16 0.18 0.17 0.16 0.16 0.14 0.13 0.14 0.18 0.16 0.17 0.19 0.21 0.23 0.26 0.30 0.31 0.31 0.31 0.33 0.34 0.34 0.35 0.36
0.11 0.11 0.13 0.15 0.15 0.15 0.15 0.15 0.14 0.14 0.13 0.13 0.14 0.15 0.17 0.18 0.19 0.20 0.20 0.19 0.16 0.16 0.16 0.16 0.14 0.13 0.15 0.18 0.22 0.20 0.20 0.21 0.23 0.24 0.27 0.30 0.31 0.31 0.31 0.32 0.34 0.34 0.34 0.35
0.14 0.15 0.16 0.18 0.19 0.19 0.18 0.16 0.15 0.14 0.13 0.13 0.13 0.14 0.14 0.15 0.17 0.18 0.19 0.20 0.20 0.20 0.17 0.14 0.13 0.15 0.19 0.23 0.22 0.22 0.23 0.25 0.26 0.27 0.29 0.30 0.33 0.33 0.33 0.34 0.36 0.36 0.36 0.36
0.15 0.16 0.17 0.18 0.19 0.20 0.19 0.18 0.17 0.16 0.15 0.15 0.16 0.17 0.18 0.19 0.19 0.20 0.20 0.17 0.17 0.18 0.16 0.13 0.15 0.19 0.21 0.21 0.20 0.21 0.24 0.26 0.27 0.29 0.30 0.31 0.33 0.35 0.36 0.35 0.35 0.35 0.36 0.37
0.18 0.17 0.17 0.17 0.17 0.16 0.16 0.16 0.16 0.16 0.16 0.16 0.17 0.18 0.20 0.20 0.18 0.16 0.18 0.19 0.20 0.19 0.17 0.15 0.18 0.20 0.21 0.20 0.20 0.23 0.24 0.26 0.28 0.30 0.31 0.33 0.34 0.35 0.35 0.35 0.35 0.33 0.32 0.33
0.18 0.17 0.16 0.16 0.17 0.17 0.16 0.15 0.14 0.13 0.14 0.14 0.14 0.14 0.16 0.18 0.20 0.19 0.18 0.19 0.19 0.20 0.18 0.18 0.21 0.22 0.22 0.21 0.23 0.25 0.27 0.29 0.32 0.34 0.35 0.34 0.33 0.33 0.33 0.33 0.34 0.34 0.32 0.31
0.16 0.15 0.15 0.14 0.15 0.15 0.16 0.16 0.15 0.14 0.14 0.15 0.13 0.13 0.13 0.14 0.16 0.17 0.18 0.18 0.18 0.19 0.19 0.20 0.21 0.23 0.23 0.23 0.25 0.27 0.28 0.30 0.32 0.32 0.31 0.31 0.32 0.33 0.33 0.33 0.32 0.32 0.32 0.30
0.14 0.13 0.13 0.13 0.11 0.12 0.14 0.16 0.17 0.17 0.17 0.18 0.18 0.15 0.15 0.16 0.16 0.16 0.17 0.17 0.17 0.17 0.18 0.18 0.19 0.21 0.22 0.24 0.25 0.26 0.27 0.28 0.29 0.29 0.30 0.31 0.32 0.33 0.32 0.33 0.33 0.32 0.31 0.31